Location: Alladorf
(49.9620°N, 11.3790°E)
Time: 20:23:52
(UTC+00:00)

YAOGAN 6 - Pass Details

Date: 29 November 2020
Orbit: 466 x 502 km, 97.0° (Epoch: 25 January)

Event Time Altitude Azimuth Distance (km) Brightness Sun altitude
Rises 05:22:01 0° 12° (NNE) 2,533 6.2 -13.4°
Reaches altitude 10° 05:24:05 10° 12° (NNE) 1,645 5.2 -13.1°
Maximum altitude 05:27:37 88° 295° (WNW) 476 2.4 -12.5°
Drops below altitude 10° 05:31:06 10° 195° (SSW) 1,621 5.3 -12.0°
Sets 05:33:08 0° 195° (SSW) 2,491 6.2 -11.7°
